DW3823 Weather Reports


Display with metric or nautical units.
time (UTC)temp
F
wind
direction
speed
MPH
gust
MPH
rain 1hr
in
rain 24hr
in
rain mn
in
humidity
%
barometer
mb
20260505035531 65 199 2.0 8.0 0.00 0.00 0.00 58 1011.4
20260505035030 65 175 3.0 8.0 0.00 0.00 0.00 57 1011.4
20260505034532 65 197 2.0 8.0 0.00 0.00 0.00 58 1011.3
20260505034031 65 189 1.0 8.0 0.00 0.00 0.00 58 1011.3
20260505033531 65 167 2.0 8.0 0.00 0.00 0.00 58 1011.4
20260505033029 65 162 1.0 5.0 0.00 0.00 0.00 58 1011.3
20260505032528 65 226 1.0 8.0 0.00 0.00 0.00 58 1011.5
20260505032029 65 142 2.0 8.0 0.00 0.00 0.00 58 1011.4
20260505031528 65 178 1.0 8.0 0.00 0.00 0.00 58 1011.5
20260505031032 65 174 2.0 6.0 0.00 0.00 0.00 58 1011.5
20260505030530 65 194 2.0 6.0 0.00 0.00 0.00 58 1011.4
20260505030028 65 260 1.0 10.0 0.00 0.00 0.00 59 1011.5
20260505025528 65 186 4.0 10.0 0.00 0.00 0.00 59 1011.4
20260505025027 65 189 1.0 6.0 0.00 0.00 0.00 59 1011.3
20260505024527 66 173 1.0 6.0 0.00 0.00 0.00 59 1011.3
20260505024030 66 178 2.0 7.0 0.00 0.00 0.00 59 1011.2
20260505023527 66 229 2.0 8.0 0.00 0.00 0.00 58 1011.5
20260505023027 66 161 3.0 8.0 0.00 0.00 0.00 58 1011.6
20260505022527 66 178 2.0 5.0 0.00 0.00 0.00 57 1011.4
20260505022026 67 189 1.0 7.0 0.00 0.00 0.00 56 1011.7
20260505021530 67 197 1.0 8.0 0.00 0.00 0.00 56 1011.5
20260505021026 67 213 3.0 8.0 0.00 0.00 0.00 56 1011.4
20260505020526 67 247 1.0 6.0 0.00 0.00 0.00 55 1011.4
20260505020026 67 189 1.0 6.0 0.00 0.00 0.00 55 1011.4
20260505015526 68 184 1.0 6.0 0.00 0.00 0.00 54 1011.4
20260505015026 68 174 1.0 6.0 0.00 0.00 0.00 54 1011.3
20260505014525 68 201 1.0 6.0 0.00 0.00 0.00 53 1011.4
20260505014024 68 261 3.0 6.0 0.00 0.00 0.00 53 1011.3
20260505013527 68 243 1.0 4.0 0.00 0.00 0.00 53 1011.2
20260505013024 68 190 1.0 5.0 0.00 0.00 0.00 53 1011.3
20260505012526 69 271 1.0 5.0 0.00 0.00 0.00 52 1011.2
20260505012026 69 207 3.0 5.0 0.00 0.00 0.00 52 1011.3
20260505011544 69 159 1.0 5.0 0.00 0.00 0.00 52 1011.2
20260505011024 69 250 2.0 4.0 0.00 0.00 0.00 51 1011.2
20260505010527 70 169 2.0 8.0 0.00 0.00 0.00 51 1011.0
20260505010023 70 182 3.0 8.0 0.00 0.00 0.00 51 1011.2
20260505005523 70 186 1.0 9.0 0.00 0.00 0.00 51 1011.2
20260505005023 70 261 3.0 9.0 0.00 0.00 0.00 50 1011.3
20260505004523 70 244 1.0 7.0 0.00 0.00 0.00 50 1011.2
20260505004023 71 281 2.0 7.0 0.00 0.00 0.00 50 1011.2
20260505003522 71 194 2.0 8.0 0.00 0.00 0.00 50 1011.0
20260505003022 71 191 1.0 8.0 0.00 0.00 0.00 50 1011.0
20260505002524 71 155 2.0 8.0 0.00 0.00 0.00 50 1011.0
20260505002022 71 136 2.0 5.0 0.00 0.00 0.00 50 1011.1
20260505001522 71 184 1.0 5.0 0.00 0.00 0.00 51 1011.0
20260505001021 72 193 1.0 7.0 0.00 0.00 0.00 50 1010.9
20260505000521 72 192 2.0 8.0 0.00 0.00 0.00 49 1010.9
20260505000028 72 191 1.0 6.0 0.00 0.00 0.00 49 1010.9
20260504235521 72 169 0.0 4.0 0.00 0.00 0.00 48 1010.9
20260504235022 72 173 2.0 7.0 0.00 0.00 0.00 48 1011.0
20260504234525 73 294 3.0 8.0 0.00 0.00 0.00 48 1011.0
20260504234020 73 249 3.0 8.0 0.00 0.00 0.00 47 1010.8
20260504233521 73 230 2.0 8.0 0.00 0.00 0.00 47 1011.1
20260504233018 74 179 2.0 9.0 0.00 0.00 0.00 47 1011.1
20260504232517 74 195 4.0 14.0 0.00 0.00 0.00 46 1011.2
20260504232017 74 241 5.0 14.0 0.00 0.00 0.00 45 1011.2
20260504231516 74 159 3.0 11.0 0.00 0.00 0.00 46 1011.2
20260504231016 74 194 5.0 11.0 0.00 0.00 0.00 46 1011.4
20260504230516 75 197 3.0 10.0 0.00 0.00 0.00 46 1011.4
20260504230016 75 290 3.0 6.0 0.00 0.00 0.00 46 1011.5
20260504225515 75 200 3.0 11.0 0.00 0.00 0.00 46 1011.4
20260504225015 75 123 4.0 11.0 0.00 0.00 0.00 46 1011.3
20260504224515 76 151 2.0 7.0 0.00 0.00 0.00 46 1011.1
20260504224014 76 152 1.0 13.0 0.00 0.00 0.00 47 1011.2
20260504223516 76 305 3.0 13.0 0.00 0.00 0.00 45 1011.3
20260504223018 76 194 4.0 14.0 0.00 0.00 0.00 45 1011.3
20260504222514 77 126 3.0 14.0 0.00 0.00 0.00 45 1011.2
20260504222013 77 144 2.0 12.0 0.00 0.00 0.00 44 1011.2
20260504221513 77 176 6.0 12.0 0.00 0.00 0.00 44 1011.3
20260504221017 77 134 2.0 12.0 0.00 0.00 0.00 45 1011.2
20260504220514 77 224 4.0 12.0 0.00 0.00 0.00 44 1011.2
20260504220013 77 215 3.0 10.0 0.00 0.00 0.00 43 1011.2
20260504215513 77 284 3.0 11.0 0.00 0.00 0.00 42 1011.1
20260504215012 77 238 5.0 11.0 0.00 0.00 0.00 44 1011.1
20260504214511 77 181 2.0 11.0 0.00 0.00 0.00 45 1011.0
20260504214110 77 317 4.0 10.0 0.00 0.00 0.00 43 1011.1
20260504213511 77 211 2.0 8.0 0.00 0.00 0.00 44 1011.0
20260504213009 77 184 4.0 12.0 0.00 0.00 0.00 44 1011.1
20260504212510 77 171 4.0 12.0 0.00 0.00 0.00 45 1011.1
20260504212009 77 157 3.0 12.0 0.00 0.00 0.00 44 1011.0
20260504211510 78 173 3.0 9.0 0.00 0.00 0.00 46 1011.2
20260504211008 78 144 3.0 13.0 0.00 0.00 0.00 45 1011.2
20260504210507 78 218 2.0 13.0 0.00 0.00 0.00 45 1011.4
20260504210012 78 238 3.0 8.0 0.00 0.00 0.00 44 1011.3
20260504205506 78 207 2.0 11.0 0.00 0.00 0.00 46 1011.4
20260504205005 78 221 4.0 9.0 0.00 0.00 0.00 43 1011.5
20260504204508 78 197 2.0 9.0 0.00 0.00 0.00 46 1011.5
20260504204004 78 151 5.0 17.0 0.00 0.00 0.00 48 1011.6
20260504203504 77 236 4.0 17.0 0.00 0.00 0.00 48 1011.7
20260504203003 77 196 2.0 10.0 0.00 0.00 0.00 47 1011.8
20260504202502 77 158 3.0 9.0 0.00 0.00 0.00 47 1011.8
20260504202000 78 239 4.0 9.0 0.00 0.00 0.00 45 1011.9
20260504201500 78 199 3.0 10.0 0.00 0.00 0.00 44 1012.1
20260504201059 78 232 3.0 10.0 0.00 0.00 0.00 47 1012.1
20260504200559 78 265 4.0 11.0 0.00 0.00 0.00 45 1012.2
20260504200103 77 242 3.0 11.0 0.00 0.00 0.00 49 1012.2
20260504195558 76 250 4.0 12.0 0.00 0.00 0.00 49 1012.5
20260504195058 77 167 3.0 9.0 0.00 0.00 0.00 45 1012.4
20260504194605 77 234 3.0 10.0 0.00 0.00 0.00 47 1012.5
20260504194059 77 161 1.0 13.0 0.00 0.00 0.00 47 1012.2
20260504193559 78 164 3.0 13.0 0.00 0.00 0.00 50 1012.5
20260504193100 78 332 3.0 14.0 0.00 0.00 0.00 47 1012.5
20260504192555 77 151 5.0 14.0 0.00 0.00 0.00 47 1012.6
20260504192055 78 150 2.0 7.0 0.00 0.00 0.00 49 1012.6
20260504191609 77 221 1.0 12.0 0.00 0.00 0.00 56 1012.8
20260504191052 78 267 4.0 12.0 0.00 0.00 0.00 48 1012.8
20260504190554 78 157 3.0 9.0 0.00 0.00 0.00 51 1012.8
20260504190051 77 237 3.0 10.0 0.00 0.00 0.00 52 1013.0
20260504185549 77 277 4.0 10.0 0.00 0.00 0.00 49 1012.9
20260504185052 76 222 3.0 7.0 0.00 0.00 0.00 52 1013.0
20260504184549 76 160 2.0 9.0 0.00 0.00 0.00 48 1013.1
20260504184047 77 182 4.0 9.0 0.00 0.00 0.00 49 1013.2
20260504183546 76 335 3.0 13.0 0.00 0.00 0.00 50 1013.3
20260504183046 76 281 3.0 8.0 0.00 0.00 0.00 50 1013.3
20260504182548 76 165 4.0 8.0 0.00 0.00 0.00 49 1013.4
20260504182045 76 192 3.0 11.0 0.00 0.00 0.00 49 1013.4
20260504181548 76 37 3.0 11.0 0.00 0.00 0.00 53 1013.5
20260504181044 75 187 2.0 9.0 0.00 0.00 0.00 53 1013.4
20260504180543 76 280 3.0 10.0 0.00 0.00 0.00 52 1013.4
20260504180043 76 237 5.0 10.0 0.00 0.00 0.00 53 1013.6
20260504175543 76 184 2.0 12.0 0.00 0.00 0.00 53 1013.5
20260504175040 75 144 3.0 12.0 0.00 0.00 0.00 49 1013.5
20260504174539 75 169 3.0 8.0 0.00 0.00 0.00 51 1013.6
20260504174039 75 351 2.0 9.0 0.00 0.00 0.00 50 1013.6
20260504173537 75 153 3.0 14.0 0.00 0.00 0.00 51 1013.7
20260504173036 75 140 2.0 10.0 0.00 0.00 0.00 53 1013.7
20260504172538 74 194 5.0 12.0 0.00 0.00 0.00 51 1013.9
20260504172037 74 229 4.0 9.0 0.00 0.00 0.00 52 1013.9
20260504171545 74 101 3.0 9.0 0.00 0.00 0.00 52 1014.0
20260504171034 74 153 3.0 8.0 0.00 0.00 0.00 52 1014.0
20260504170534 74 196 3.0 14.0 0.00 0.00 0.00 54 1014.0
20260504151013 68 154 4.0 13.0 0.00 0.00 0.00 56 1015.3
20260504150507 68 191 4.0 13.0 0.00 0.00 0.00 57 1015.4
20260504141054 64 273 5.0 10.0 0.00 0.00 0.00 57 1015.7
20260504140554 64 265 2.0 12.0 0.00 0.00 0.00 59 1015.9
20260504130538 58 160 1.0 11.0 0.00 0.00 0.00 62 1016.1
20260504110507 52 220 2.0 5.0 0.00 0.00 0.00 66 1015.1
20260504100502 53 225 1.0 4.0 0.00 0.00 0.00 64 1015.3
20260504090112 52 213 1.0 4.0 0.00 0.01 0.00 65 1015.6
20260504081554 51 126 0.0 3.0 0.00 0.01 0.00 68 1015.6
20260504081053 51 138 0.0 3.0 0.00 0.01 0.00 68 1015.7
20260504080552 51 138 1.0 4.0 0.00 0.01 0.00 68 1015.6
20260504050533 52 232 1.0 2.0 0.00 0.01 0.00 66 1017.0
20260504045531 53 232 1.0 4.0 0.00 0.01 0.01 65 1016.9
20260504045031 53 227 0.0 3.0 0.00 0.01 0.01 65 1016.9
20260504044531 52 225 0.0 3.0 0.00 0.01 0.01 65 1016.9
20260504044031 53 225 0.0 7.0 0.00 0.01 0.01 65 1016.9
20260504043532 53 223 0.0 7.0 0.00 0.01 0.01 64 1017.0
20260504043042 53 232 0.0 2.0 0.00 0.01 0.01 63 1016.8
20260504042531 53 232 0.0 3.0 0.00 0.01 0.01 63 1016.9
20260504042030 53 232 0.0 3.0 0.00 0.01 0.01 62 1016.8
20260504041535 54 227 1.0 5.0 0.00 0.01 0.01 62 1016.9
20260504041030 53 220 1.0 5.0 0.00 0.01 0.01 62 1016.9
20260504040532 53 269 0.0 3.0 0.00 0.01 0.01 62 1017.1
20260504040030 53 234 1.0 3.0 0.00 0.01 0.01 62 1016.8